www.pogodaiklimat.ru

Погода и климат >> Архив погоды >> Россия >> Дагестан >> Сергокала


ПОГОДА в Сергокале

  • Прогноз погоды в Сергокале
  • Монитор погоды в Сергокале

АРХИВ ПОГОДЫ в Сергокале

Время (UTC), дата Ветер
(напр.,м/с)
 
Видим.   Явления Облачность Т
(С)
Тd
(С)
f
(%)
Тe
(С)
Тes
(С)
Комфортность P
(гПа)
Po
(гПа)
Тmin
(С)
Tmax
(С)
R
(мм)
R24
(мм)
S
(см)
06 9.01 С 1 20 км {снег} 10/10 600 м
[Sc]
0.0 -0.7 95 -2 -2 1006.7 944.3
09 9.01 С 1 20 км 9/9 600 м
[Sc]
+2.6 -0.9 78 +1 +2 1004.6 942.8
12 9.01 СЗ 4
{12}
20 км 10/4 600 м
[Sc As op]
+3.2 +0.2 81 -1 -1 1006.9 945.1
15 9.01 СЗ 2 4000 м 10/10 600 м
[Sc]
+2.7 -0.3 81 -0 -0 1010.4 948.3 +4.2
18 9.01 С 4 4000 м 10/10 600 м
[Sc]
+2.1 -3.1 68 -3 -3 1012.8 950.4
21 9.01 СЗ 3 4000 м 10/10 600 м
[Sc]
+2.2 -2.7 70 -2 -2 1014.7 952.2
00 10.01 С 4 4000 м 10/10 600 м
[Sc]
+0.9 -4.6 67 -4 -4 1019.2 956.1
03 10.01 ЮЗ 1 10 км 10/10 600 м
[Sc]
-2.7 -4.5 87 -5 -5 1022.4 958.3 -3.1
06 10.01 ЮВ 2 20 км 1/0
[Ci fib]
-0.7 -3.3 83 -4 -3 1024.7 960.9 -3.2
09 10.01 В 2 20 км 1/1 600 м
[St]
+1.3 -2.6 75 -2 +2 1023.8 960.5
12 10.01 В 3 20 км 3/3 600 м
[St]
-0.2 -2.7 83 -5 -4 1025.4 961.7
15 10.01 ЮВ 1 2000 м дымка 10/10 300 м
[St]
-3.4 -3.6 99 -6 -6 1026.8 962.3 +2.0
18 10.01 ЮВ 1 200 м туман н/о -3.6 -3.9 98 -6 -6 1026.3 961.7
21 10.01 Ю 1 200 м туман н/о -4.3 -4.6 98 -7 -7 1025.0 960.4
00 11.01 ЮЗ 1 200 м туман н/о -5.9 -6.4 96 -8 -8 1024.4 959.4
03 11.01 штиль 0 200 м туман н/о -5.4 -5.9 96 -7 -7 1023.0 958.2 -6.1
06 11.01 СЗ 1 20 км {туман} 6/1 600 м
[Sc Ci fib]
-3.8 -4.1 98 -6 -5 1023.1 958.7 -6.3
09 11.01 В 2 20 км 8/1 600 м
[St Ac trans Ci fib]
+3.5 -2.7 64 +1 +3 1020.2 957.6
12 11.01 В 4 20 км 9/0
[Ci fib]
+3.8 -0.3 75 -1 0 1018.9 956.5
15 11.01 З 2 4000 м 10/0
[Ci fib]
+0.8 -0.8 89 -3 -3 1019.2 956.1 +4.9
18 11.01 З 1 4000 м ясно +0.2 -4.2 72 -2 -2 1017.8 954.6
21 11.01 З 2 н/о н/о +3.2 -5.9 51 +1 +1 1014.6 952.3
00 12.01 СЗ 2 4000 м ясно +3.8 -7.3 44 +2 +2 1012.8 950.7
03 12.01 СЗ 2 4000 м ясно +5.0 -9.2 35 +3 +3 1009.8 948.1 -0.7
06 12.01 В 1 20 км 10/10 600 м
[Sc]
+6.4 -6.3 40 +6 +6 1009.4 948.0
09 12.01 СВ 1 20 км 10/0
[Cs]
+12.6 -4.9 29 +13 +17 1005.8 946.0
12 12.01 В 1 20 км 8/0
[Ci fib]
+7.4 +1.5 66 +7 +8 1007.8 946.8
15 12.01 С 10-16
{16}
10 км в посл. час туман ясно +5.0 -2.8 57 -1 -1 1010.5 948.9 +12.8
18 12.01 СЗ 6-10
{20}
10 км {туман} 3/0
[Ci fib]
+4.0 -0.6 72 -1 -1 1013.2 951.2
21 12.01 ЮЗ 2
{10}
10 км ясно +1.8 -3.4 68 -1 -1 1013.5 950.9
00 13.01 ЮЗ 4 10 км ясно +1.2 -4.0 68 -4 -4 1012.3 949.7
03 13.01 ЮЗ 4 4000 м 3/0
[Ac trans]
+1.5 -3.3 70 -3 -3 1009.9 947.5 +0.6
06 13.01 В 1 20 км 9/8 600 м
[Sc As trans Ci fib]
+1.7 -1.5 79 0 0 1008.4 946.2
09 13.01 В 4 20 км 6/3 600 м
[Sc As trans Ci fib]
+5.5 +0.9 72 +2 +3 1003.8 942.7
12 13.01 СВ 3 20 км 10/10 600 м
[St]
+2.9 +1.1 88 -1 -1 1005.0 943.2
15 13.01 СЗ 2 4000 м слаб. морось 10/10 600 м
[St]
+2.2 +1.6 96 -1 -1 1007.1 945.0 +6.2
18 13.01 С 4 200 м слаб. морось {туман} ?/? +1.0 +0.8 99 -4 -4 1008.7 946.3
21 13.01 С 3 4000 м в посл. час туман 10/10 300 м
[St]
+0.5 +0.4 99 -4 -4 1009.1 946.6
00 14.01 С 2 4000 м {морось, туман} 10/10 600 м
[St]
+0.2 -1.3 90 -3 -3 1009.1 946.5
03 14.01 Ю 1 200 м туман ?/? -1.9 -2.1 99 -4 -4 1010.4 947.2 -2.5 0.3
06 14.01 Ю 3 200 м туман н/о -0.9 -1.1 99 -6 -6 1010.8 947.8
09 14.01 В 2 4000 м дымка {туман} 10/10 600 м
[St]
+0.5 -0.1 96 -3 -3 1008.5 946.0
12 14.01 В 3 4000 м дымка {туман} 10/10 300 м
[St]
+0.4 -0.0 97 -4 -4 1009.1 946.6
15 14.01 В 1 4000 м 10/10 600 м
[Sc]
-0.4 -0.7 98 -3 -3 1009.5 946.8 +1.5
18 14.01 Ю 4 4000 м 10/10 600 м
[Sc]
-0.4 -0.9 96 -6 -6 1010.3 947.5
21 14.01 Ю 3 4000 м 10/10 600 м
[Sc]
-1.2 -1.8 96 -6 -6 1009.5 946.6
00 15.01 З 2 4000 м ясно -2.6 -3.2 96 -7 -7 1009.4 946.1
03 15.01 З 1 4000 м ясно -1.8 -4.3 83 -4 -4 1009.6 946.5 -3.0
06 15.01 З 1 20 км 9/8 600 м
[Sc As trans]
0.0 -2.8 81 -2 -2 1009.8 947.1
09 15.01 В 2 20 км 8/4 600 м
[Sc As trans Ci fib]
+5.7 -0.0 67 +4 +5 1007.6 946.3
12 15.01 В 1 20 км 8/3 600 м
[Sc Ac lent]
+6.4 +1.3 70 +6 +6 1006.8 945.7
15 15.01 З 1 4000 м ясно +4.1 -1.2 68 +3 +3 1007.9 946.2 +6.5
18 15.01 ЮЗ 3 4000 м 9/9 600 м
[Sc]
+7.3 -6.5 37 +5 +5 1006.0 945.0
21 15.01 ЮЗ 4 4000 м 8/8 600 м
[Sc]
+7.8 -6.7 35 +5 +5 1002.7 942.1
00 16.01 ЮЗ 5 4000 м 3/3 600 м
[Sc]
+9.0 -7.0 32 +6 +6 1000.9 940.6

 

Местоположение метеостанции Сергокала (Дагестан, Россия): широта 42.45 долгота 47.67 высота над уровнем моря 518 м.

В архиве по умолчанию представлена погода в Сергокале за последнюю неделю. Архивные данные за месяц целиком и за предыдущие месяцы, начиная с января 2011 года, Вы можете получить, выбрав интересующий диапазон дат из раскрывающегося списка и нажав кнопку "Ввод!".


*Определитесь, кто Вы:
робот инопланетянин человек

Внимание! Время в таблицах - всемирное. Для получения местного времени необходимо прибавить поправку, которая равна 3 ч.

Смотрите также архив погоды в соседних городах и на ближайших метеорологических станциях:

Погода в Изберге (Дагестан, Россия) (22 км)
Погода в Куппе (Дагестан, Россия) (47 км)
Погода в Гунибе (Дагестан, Россия) (58 км)
Погода в Кумухе (Дагестан, Россия) (58 км)
Погода в Буйнакске (Дагестан, Россия) (61 км)
Погода в Махачкале (Дагестан, Россия) (65 км)
Погода в Дербенте (Дагестан, Россия) (67 км)
Погода в Хунзахе (Дагестан, Россия) (81 км)
Погода в Касумкенте (Дагестан, Россия) (95 км)
Погода в Ахты (Дагестан, Россия) (109 км)

Пояснения к столбцам:

Ветер - указаны скорость ветра в м/с - средняя за 10 мин, порывы в срок и между сроками (в фигурных скобках) и направление, откуда дует ветер: С - северный, СВ - северо-восточный, В - восточный, ЮВ - юго-восточный, Ю - южный, ЮЗ - юго-западный, З - западный, СЗ - северо-западный.
Видимость - горизонтальная дальность видимости в метрах или километрах. При видимости от 1 до 10 км при отсутствии осадков обычно наблюдается дымка, при ухудшении видимости до 1 км и менее - туман. В сухую погоду видимость может ухудшаться дымом, пылью или мглою.
Явления - указаны атмосферные явления, наблюдавшиеся в срок или в последний час перед сроком; фигурными скобками обозначены явления, наблюдавшиеся между сроками (за 1-3 часа до срока); квадратными скобками обозначены град или гололедные отложения с указанием их диаметра в мм.
Облачность - указаны через наклонную черту общая и нижняя облачность в баллах и высота нижней границы облаков в метрах; квадратными скобками обозначены формы облаков: Ci - перистые, Cs - перисто-слоистые, Cc - перисто-кучевые, Ac - высококучевые, As - высокослоистые, Sc - слоисто-кучевые, Ns - слоисто-дождевые, Cu - кучевые, Cb - кучево-дождевые. Подробнее классификацию облаков см. в Атласе облаков (PDF).
T - Температура воздуха - температура, измеренная на высоте 2 м над землей.
Td - Температура точки росы - температура, при понижении до которой содержащийся в воздухе водяной пар достигнет насыщения.
f - Относительная влажность воздуха - влажноcть воздуха, измеренная на высоте 2 м над землей.
Te - Эффективная температура - температура, которую ощущает одетый по сезону человек в тени. Характеристика душности погоды. При расчете учитывается влияние влажности воздуха и скорости ветра на теплоощущения человека.
Tes - Эффективная температура на солнце - температура, которую ощущает человек, с поправкой на солнечный нагрев. Характеристика знойности погоды. Зависит от высоты солнца над горизонтом, облачности и скорости ветра. Ночью, в пасмурную погоду, а также при ветре 12 м/с и более поправка равна нулю.
P - Атмосферное давление - приведенное к уровню моря атмосферное давление.
Po - Атмосферное давление - измеренное на уровне метеостанции атмосферное давление.
Tmin - Минимальная температура - минимум температуры воздуха на высоте 2 м над землей.
Tmax - Максимальная температура - максимум температуры воздуха на высоте 2 м над землей.
R - Количество осадков - Количество выпавших осадков за период времени, мм. При наведении курсора мыши на число - период времени, за который выпало указанное количество осадков.
R24 - Количество осадков - Количество выпавших осадков за 24 часа, мм.
S - Снежный покров - Высота снежного покрова, см. При наведении курсора мыши на число - состояние снежного покрова и степень покрытия местности в баллах.